RH
16 32 32 25 27 28 26 26 21 16 17 16 21 27 32 27 33 32 33 35 40 46 40 34 29 25 27 25 30 70 99 90 97 98 99 100 100 100 100 100 97 93 97 98
29 32 20 28 30 29 26 30 26 20 18 18 20 23 32 28 31 29 30 31 35 40 31 34 23 24 29 26 29 69 91 90 87 97 90 100 99 100 100 100 99 99 98 99
20 27 22 28 29 28 25 30 30 23 22 20 18 25 33 31 26 30 30 30 33 37 29 31 24 25 31 28 27 44 72 79 81 80 95 96 100 99 100 100 99 98 98 99
36 24 29 27 27 29 29 28 30 25 34 29 31 34 35 30 24 26 25 29 33 35 40 27 21 26 32 28 26 28 36 55 68 78 99 99 98 98 99 98 99 99 99 97
40 30 24 36 34 38 31 33 31 30 30 34 35 42 38 37 26 20 25 28 28 33 40 33 25 19 28 30 25 28 28 29 32 42 63 87 100 100 100 100 100 100 99 100
45 38 35 28 25 28 38 38 43 41 47 54 45 45 39 34 26 20 21 28 24 29 36 41 38 26 21 26 21 25 28 30 30 31 37 56 79 95 85 86 98 99 100 100
34 31 34 39 39 40 45 48 47 58 60 48 37 45 38 34 28 29 35 33 27 24 28 30 42 48 29 24 25 22 26 28 31 33 32 34 40 64 73 85 91 97 100 100
38 46 36 42 39 36 38 47 49 45 57 44 47 47 36 30 30 26 24 25 32 22 24 28 38 49 47 23 26 25 23 27 29 30 32 33 34 35 37 47 59 69 70 66
28 37 26 38 37 35 50 64 44 44 56 60 46 41 37 34 30 35 32 31 29 29 31 30 34 43 39 21 23 25 27 25 28 32 33 34 37 40 41 40 40 42 47 56
35 37 40 36 46 49 43 39 54 55 52 50 47 52 38 29 30 39 32 35 32 31 31 32 36 36 38 36 37 41 37 30 30 31 32 35 36 40 43 46 47 47 46 46
40 43 43 45 44 42 54 48 44 45 44 44 45 45 35 30 35 37 36 35 32 32 35 34 32 30 37 44 46 48 50 52 48 36 32 34 36 38 42 45 47 50 52 54
56 44 41 42 44 48 46 46 44 50 51 56 51 44 36 34 35 34 33 32 32 33 31 30 31 33 37 41 45 47 50 52 56 53 50 48 41 41 43 46 48 50 52 50
80 70 56 48 39 38 42 47 44 47 48 51 59 46 40 38 37 36 32 33 33 34 32 31 30 31 29 32 33 37 43 47 53 58 57 54 54 52 48 52 52 52 56 56
81 97 96 75 82 87 80 70 63 60 54 49 50 51 47 42 40 37 37 32 29 30 34 34 28 29 31 32 32 32 27 29 34 47 52 59 60 61 63 62 64 62 70 78
32 47 64 92 78 78 71 70 68 72 70 67 53 48 45 42 39 38 37 34 31 31 30 35 33 32 31 33 33 36 33 28 22 24 26 29 53 57 59 69 65 71 74 80
68 65 65 55 44 52 52 58 63 56 59 62 60 58 48 43 40 38 37 36 33 29 31 33 36 34 34 33 33 33 36 34 28 28 31 32 33 53 44 61 60 67 68 69
82 95 82 78 60 64 59 44 63 63 62 60 62 60 57 47 42 43 42 39 35 34 33 34 37 36 40 36 35 34 35 37 29 26 25 24 30 31 34 41 48 59 61 60
60 91 96 82 78 82 46 38 44 52 43 26 36 54 37 39 48 39 38 41 39 38 36 34 33 37 39 39 38 37 36 37 37 34 37 37 34 35 38 38 40 52 64 64
62 64 87 98 94 54 45 41 32 29 28 30 28 27 27 28 42 44 40 42 43 41 38 34 35 34 34 35 39 37 32 36 37 38 36 42 44 46 51 52 44 57 63 67
62 59 94 98 93 81 39 45 48 39 36 34 44 50 57 49 52 52 45 42 44 47 43 37 35 30 32 37 38 37 33 32 33 39 41 44 47 54 68 64 48 49 56 62
85 90 100 97 96 77 52 47 48 71 52 57 70 78 78 78 80 59 49 50 46 46 44 44 39 32 31 35 35 34 36 35 35 37 44 50 48 48 63 58 57 60 58 50
81 88 87 94 94 84 54 81 75 65 54 50 53 60 54 68 83 80 61 68 54 47 47 47 43 41 36 31 30 31 34 38 40 42 49 52 51 46 48 54 55 70 74 58
80 79 80 81 75 64 64 72 66 57 50 42 39 38 57 65 74 83 73 77 76 58 52 46 44 41 38 37 35 31 30 37 46 60 56 41 35 38 42 44 47 49 48 41
59 53 53 52 48 48 44 65 60 49 42 40 38 35 45 58 78 66 69 71 76 84 63 55 47 44 43 41 39 37 42 46 47 46 41 47 52 38 33 38 44 43 58 83
71 71 69 73 69 56 52 44 40 43 58 54 37 33 42 61 70 76 76 43 49 78 87 69 70 57 48 53 53 54 56 63 63 63 54 55 52 51 43 42 47 57 75 95
67 64 66 65 65 62 50 49 47 44 51 57 70 59 62 68 74 69 72 73 70 66 84 82 83 81 75 70 66 64 68 72 72 74 70 70 66 67 65 63 60 60 88 99
Wind_Speed
32 36 38 36 34 29 24 20 20 16 10 21 20 19 15 16 13 10 9 12 11 8 11 7 7 6 6 10 14 3 19 17 16 18 24 19 27 34 38 40 50 52 51 50
34 41 32 34 26 27 27 24 28 26 23 22 22 23 16 17 17 14 12 11 14 12 11 7 6 5 3 7 11 2 20 14 18 18 13 19 26 34 36 40 42 49 47 47
36 27 34 35 32 29 31 34 31 27 25 24 23 27 19 15 18 16 13 12 13 11 11 9 5 4 2 3 6 6 14 16 18 20 20 20 25 24 35 39 41 36 37 42
24 32 21 22 34 32 30 31 27 25 23 14 10 12 19 23 24 18 17 13 10 8 11 9 5 5 5 2 2 4 6 6 13 19 26 22 26 27 30 35 37 36 36 42
20 18 32 30 19 19 25 26 21 19 21 22 18 10 13 5 17 17 12 14 12 9 10 12 7 7 6 6 6 6 7 5 6 10 13 23 21 27 33 36 36 37 34 28
24 17 15 22 28 22 11 13 6 12 12 8 19 13 19 15 14 18 12 10 19 17 13 12 13 10 9 8 8 8 9 8 5 5 9 11 24 31 32 28 28 24 27 27
29 29 28 18 17 26 22 11 4 3 5 8 10 13 23 20 20 13 8 5 10 18 15 15 16 14 9 8 9 11 11 10 9 7 8 10 14 19 24 24 24 24 25 31
24 13 33 28 26 22 27 28 9 7 5 3 7 7 7 2 6 17 17 14 12 15 14 13 15 15 11 9 10 10 12 12 11 11 9 10 11 12 15 17 19 21 22 23
16 16 21 23 32 30 18 23 27 12 5 3 6 10 11 19 14 13 11 10 10 11 14 17 17 16 12 11 10 9 10 12 13 14 14 12 13 14 15 17 20 21 23 24
11 4 8 9 17 28 26 17 13 15 6 9 6 7 11 9 18 6 10 7 9 10 12 15 18 17 14 13 12 12 12 13 15 16 16 16 16 16 17 18 18 20 22 25
21 11 7 10 14 21 27 24 16 13 17 6 5 6 8 6 4 1 7 3 3 5 12 14 18 18 17 17 17 16 15 17 16 19 19 19 19 19 21 22 22 23 25 27
9 9 19 14 10 5 19 22 30 20 8 8 10 13 10 12 6 7 7 9 5 7 10 12 15 18 19 21 22 22 22 22 19 18 16 18 21 24 23 21 22 23 28 30
3 4 4 3 13 16 18 14 17 21 23 28 13 8 8 18 17 16 15 10 11 10 13 14 15 16 13 12 15 22 26 25 23 22 21 24 23 24 25 25 32 30 29 32
5 5 6 2 3 6 8 9 11 13 17 19 26 17 19 25 27 27 24 23 18 15 11 17 17 16 12 10 11 12 16 19 21 22 21 25 28 27 25 26 28 30 28 27
12 13 10 6 5 10 13 15 18 19 18 22 20 25 23 24 24 21 21 18 22 17 14 15 20 20 16 15 13 12 8 11 15 17 17 18 23 27 25 29 26 29 35 28
11 8 9 14 13 17 20 19 19 27 28 31 27 30 25 13 18 23 22 23 24 22 16 20 24 21 19 19 17 18 15 12 14 15 14 14 17 22 23 28 27 29 28 29
11 6 9 8 9 12 16 18 4 6 8 16 22 22 23 27 23 17 14 19 26 22 21 21 27 28 23 23 20 19 19 18 15 12 12 16 18 17 18 22 26 30 30 27
17 9 7 9 5 7 13 14 14 15 16 23 23 23 22 23 31 32 26 21 23 22 24 26 28 33 33 31 26 25 24 24 21 16 16 16 19 20 21 21 25 28 30 29
22 20 10 6 12 17 14 11 16 19 23 21 25 26 28 24 24 32 28 21 25 23 20 21 25 29 32 35 32 27 28 27 28 25 22 19 20 22 24 24 24 29 31 34
20 24 19 8 4 5 7 10 5 13 24 18 19 19 23 24 20 19 28 32 25 27 27 22 24 25 27 30 35 33 32 30 30 29 25 24 24 25 28 29 28 28 30 32
21 22 26 15 9 14 18 19 17 6 11 13 15 15 18 13 11 11 17 25 30 26 29 35 27 25 25 29 31 34 37 35 31 31 29 27 30 30 33 33 30 31 33 34
13 14 17 17 9 12 6 7 1 10 12 15 11 9 19 17 11 6 15 10 18 29 32 31 31 39 30 31 34 34 38 38 30 31 31 33 33 31 32 34 35 36 38 38
14 13 10 14 12 5 7 8 18 22 23 26 22 11 19 13 16 14 12 8 11 18 21 27 23 26 27 31 30 32 36 31 37 30 32 33 32 33 34 34 36 37 40 38
13 15 21 23 26 26 23 26 29 29 31 30 29 25 20 20 10 9 18 22 22 18 19 16 26 28 24 27 32 34 29 26 26 26 28 29 34 32 30 30 32 31 30 32
12 13 20 27 26 27 25 25 29 24 25 30 32 31 23 21 11 12 15 16 21 25 26 17 16 24 27 22 22 21 24 29 32 29 28 28 29 28 29 29 29 29 27 25
20 21 23 27 27 28 28 27 29 29 27 27 22 21 22 21 18 13 17 18 17 15 30 20 18 30 20 20 20 22 26 25 24 25 25 27 30 28 30 28 27 27 26 28
Wind_Direction
224 220 225 237 238 240 246 254 259 261 261 257 248 274 272 265 248 264 279 293 279 270 275 291 292 288 311 328 342 306 191 197 190 196 186 190 191 183 197 200 187 193 195 194
220 225 237 241 241 242 247 247 256 265 269 270 268 270 266 257 261 269 265 289 268 260 263 266 289 250 285 333 1 109 174 194 178 182 188 201 189 197 202 205 204 202 206 197
229 235 236 238 239 237 244 249 256 264 278 281 282 275 268 257 263 260 268 279 272 262 259 264 265 204 211 337 14 72 200 225 210 205 202 195 205 197 203 203 214 209 200 198
238 234 239 233 240 242 245 253 259 267 273 276 282 287 267 269 269 267 261 265 267 256 257 255 235 195 189 169 105 84 116 188 218 210 207 212 211 212 193 198 204 214 214 201
227 231 226 225 223 233 246 253 263 268 268 273 264 263 280 291 280 286 276 252 247 259 248 240 219 220 208 186 179 151 127 132 149 163 183 209 205 205 184 195 219 235 225 230
239 231 236 245 245 241 233 219 256 262 257 247 250 238 278 272 282 298 282 274 236 241 237 235 226 238 222 203 186 171 160 158 147 126 126 158 189 200 207 197 212 212 220 216
228 233 240 241 222 218 217 242 247 235 213 241 258 226 254 275 291 288 292 269 238 229 238 242 239 248 241 214 197 184 180 174 169 160 138 139 146 175 195 206 205 211 213 213
208 217 227 224 220 215 221 219 195 223 220 233 222 222 247 169 269 296 287 285 249 218 232 232 223 226 237 218 209 198 194 191 185 179 178 168 164 171 179 188 195 201 206 205
198 225 236 224 231 223 207 208 225 247 274 310 231 258 261 278 300 299 270 274 235 231 246 216 215 217 219 212 208 208 213 211 207 199 198 199 192 190 194 196 200 201 205 211
218 214 226 238 206 220 222 226 194 217 232 244 220 236 229 261 300 299 283 267 231 242 214 202 203 210 206 202 198 209 223 228 225 222 218 214 216 211 211 213 215 217 216 216
210 209 171 172 205 216 211 219 217 219 227 249 262 237 263 289 219 327 14 273 221 214 194 202 198 208 213 219 222 222 225 239 236 238 235 232 229 229 227 226 224 225 226 229
207 228 237 230 180 239 226 222 226 228 225 226 245 245 218 257 245 262 307 323 257 215 197 198 208 217 226 228 229 238 239 245 255 252 235 234 237 241 241 245 244 241 241 241
95 200 205 220 233 238 237 249 255 249 257 253 250 254 248 247 258 261 291 291 292 254 234 222 220 218 215 220 232 238 242 244 243 244 245 238 237 236 237 250 245 250 255 246
338 190 147 191 196 259 270 237 240 247 258 258 249 264 255 260 269 280 283 291 289 274 268 241 227 210 217 229 240 237 234 235 238 237 238 237 235 246 252 251 249 236 252 259
244 259 270 248 271 291 309 298 275 267 271 259 267 268 274 277 276 281 271 276 273 260 270 253 231 221 230 235 233 232 233 231 233 235 239 246 239 241 236 243 243 237 246 258
219 242 252 257 267 282 291 288 284 266 267 276 286 279 278 281 275 264 266 271 271 245 256 252 244 242 248 236 240 240 238 250 231 230 238 240 241 238 244 242 246 240 242 248
226 214 244 253 263 255 265 274 230 258 283 289 293 297 287 268 259 263 268 267 258 248 255 249 244 244 250 240 248 242 248 235 230 225 231 239 242 245 250 251 249 241 239 243
222 209 228 255 215 236 254 254 258 273 282 303 303 291 298 289 267 251 256 268 254 253 259 266 251 243 248 247 243 250 247 241 232 238 240 240 244 252 258 262 255 249 246 246
231 224 228 228 216 259 251 246 272 269 284 287 287 287 294 308 282 259 249 260 265 263 257 263 251 254 248 248 238 237 238 237 237 237 249 248 251 254 259 263 259 246 245 245
225 218 212 199 198 237 260 187 280 294 276 280 289 289 302 304 287 268 242 241 252 248 253 256 260 257 245 239 241 239 237 240 242 238 237 246 254 256 257 262 260 251 250 251
190 207 223 244 257 267 262 256 270 258 303 333 333 329 316 327 336 301 256 250 244 253 251 256 257 257 251 237 237 240 236 243 246 241 239 244 253 253 252 261 263 261 261 262
197 203 216 229 242 267 280 109 126 296 295 313 331 304 313 291 285 318 265 287 262 252 256 263 257 252 260 252 242 244 239 240 255 234 237 245 255 257 259 259 261 261 265 268
231 221 210 212 224 229 215 270 303 297 290 297 303 295 314 295 274 271 263 316 322 268 260 250 250 255 262 253 260 247 240 238 235 232 239 247 254 259 260 260 261 263 266 267
223 241 251 257 259 262 262 281 285 287 288 282 290 295 294 289 291 283 296 298 286 289 278 265 253 251 239 239 237 238 222 217 230 246 254 260 269 263 261 261 260 262 262 261
231 242 253 259 262 264 264 273 279 283 293 293 282 284 279 277 281 297 314 323 297 274 278 261 267 250 228 227 231 232 233 235 235 243 250 253 256 265 271 272 271 265 262 257
256 259 257 260 261 266 268 274 280 287 292 306 293 273 267 268 268 279 290 304 305 294 265 243 244 246 245 233 229 224 237 241 239 245 249 259 262 267 267 270 275 270 261 257